Location: Nitra
(48.3167°N, 18.0833°E)
Time: 17:40:32
(UTC+01:00)

STARLINK-1727 - Pass Details

Date: 24 September 2020
Orbit: 548 x 551 km, 53.0° (Epoch: 30 October)

Event Time Altitude Azimuth Distance (km) Brightness Sun altitude
Exits shadow 03:36:21 34° 39° (NE) 929 5.2 -29.0°
Drops below altitude 10° 03:39:07 10° 68° (ENE) 1,830 7.2 -28.6°
Sets 03:41:26 0° 75° (ENE) 2,725 8.2 -28.3°
